Wetterstats.de || Aktuelle Messwerte || Aktuelle Wetterkarten NEU! || Radar / Satellit NEU! || Wetterarchiv || Langzeitwerte NEU! || Klim. Kenntage || Met. Ereignisse || Agrarwerte || Echtzeitwerte

Monatsübersicht für September 2020 Diagramm
 
Wetter Information zur Wetteranzeige
Zeitraffer
Tageslänge (hh:mm)
Höchsttemperatur in °C
Uhrzeit
Tiefsttemperatur in °C
Uhrzeit
Luftfeuchte (max., in %)
Uhrzeit
Luftfeuchte (min., in %)
Uhrzeit
Luftdruck (max., in hPa)
Uhrzeit
Luftdruck (min., in hPa)
Uhrzeit
Luftdruck (Ø, in hPa)
Regenrate (max, mm/h)
Uhrzeit
Niederschlag in mm
Verdunstung in mm
Solar in W/m² (Ø)
Solar in W/m² (max.)
UV-Index (max.)
Sonnenscheindauer (hh:mm)
Windrichtung (Ø)
Windstärke (Ø in km/h)
Windstärke (Ø in bft)
Windböe (max., in km/h)
Uhrzeit
Windböe (max., in bft)
Uhrzeit
Taupunkt (max., in °C)
Uhrzeit
Taupunkt (min., in °C)
Uhrzeit
Windchill (min., in °C)
Uhrzeit
Gewitterindex (max.)
Uhrzeit
Waldbrandindex (max.)
Uhrzeit
Graslandfeuerindex (max.)
Uhrzeit
Staubsturm-Index (max.)
Uhrzeit
01
Zeitraffer
13:40
19.3
14:20 Uhr
7.2
06:30 Uhr

95
05:00 Uhr
54
14:10 Uhr
1018.2
07:00 Uhr

1016.4
16:30 Uhr
1017.5
0,000
00:05 Uhr
0,000
1.549
195
941
14:10 Uhr
4.2
14:05 Uhr

01:55:00
1,0
0
22,5
13:45 Uhr

4
13.3
10:20 Uhr
6.4
06:30 Uhr
7.2
06:30 Uhr
4
11:55 Uhr

00:00 Uhr

00:00 Uhr

00:00 Uhr
02
Zeitraffer
13:35
19.7
13:25 Uhr
7.7
03:40 Uhr

95
07:15 Uhr
58
13:20 Uhr
1017.4
23:15 Uhr

1015.7
08:00 Uhr
1016.3
0,000
00:05 Uhr
0,000
1.575
199
772
12:10 Uhr
3.8
12:40 Uhr

03:05:00
1,3
0
22,5
14:10 Uhr

4
13.6
10:15 Uhr
6.8
03:40 Uhr
7.7
03:40 Uhr
5
20:25 Uhr

00:00 Uhr

00:00 Uhr

00:00 Uhr
03
Zeitraffer
13:32
22.3
16:40 Uhr
12.6
06:50 Uhr

94
04:40 Uhr
50
16:40 Uhr
1020.0
12:30 Uhr

1017.2
00:15 Uhr
1018.9
6,000
04:55 Uhr
6,000
2.413
312
751
14:00 Uhr
3.8
13:10 Uhr

06:10:00
1,9
0
22,5
13:35 Uhr

4
15.6
10:40 Uhr
10.4
22:45 Uhr
12.6
06:50 Uhr
7
10:40 Uhr

00:00 Uhr

00:00 Uhr

00:00 Uhr
04
Zeitraffer
13:28
23.4
16:30 Uhr
14.7
01:30 Uhr

94
05:35 Uhr
69
16:30 Uhr
1021.0
13:00 Uhr

1018.6
04:45 Uhr
1019.8
6,000
04:25 Uhr
2,800
1.168
136
686
15:10 Uhr
3.1
14:55 Uhr

01:25:00
1,9
0
27,4
15:25 Uhr

4
18.7
15:05 Uhr
11.9
00:05 Uhr
14.7
01:30 Uhr
12
20:20 Uhr

00:00 Uhr

00:00 Uhr

00:00 Uhr
05
Zeitraffer
13:23
18.3
00:50 Uhr
13.1
23:55 Uhr

95
07:55 Uhr
75
15:25 Uhr
1018.9
00:05 Uhr

1014.3
08:00 Uhr
1016.3
2,400
07:25 Uhr
0,600
0.762
90
280
15:10 Uhr
1.7
11:55 Uhr

00:00:00
0,7
0
16,1
16:10 Uhr

3
17.1
10:15 Uhr
11.5
23:55 Uhr
13.1
23:55 Uhr
11
00:50 Uhr

00:00 Uhr

00:00 Uhr

00:00 Uhr
06
Zeitraffer
13:20
19.9
14:15 Uhr
8.9
23:45 Uhr

94
06:50 Uhr
52
17:55 Uhr
1020.0
22:15 Uhr

1017.3
01:00 Uhr
1018.3
0,000
00:05 Uhr
0,000
2.057
256
846
13:25 Uhr
3.6
13:40 Uhr

05:40:00
1,8
0
22,5
12:25 Uhr

4
11.9
11:55 Uhr
7.5
23:50 Uhr
8.9
23:45 Uhr
3
00:05 Uhr

00:00 Uhr

00:00 Uhr

00:00 Uhr
07
Zeitraffer
13:16
20.6
14:35 Uhr
6.3
05:55 Uhr

94
03:40 Uhr
53
14:50 Uhr
1025.3
22:00 Uhr

1020.1
00:05 Uhr
1022.7
0,000
00:05 Uhr
0,000
2.032
249
753
13:20 Uhr
3.5
12:55 Uhr

04:05:00
1,4
0
22,5
14:50 Uhr

4
12.7
12:25 Uhr
5.4
05:55 Uhr
6.3
05:55 Uhr
4
12:10 Uhr

00:00 Uhr

00:00 Uhr

00:00 Uhr
08
Zeitraffer
13:11
23.1
14:20 Uhr
7.4
04:10 Uhr

93
01:25 Uhr
48
16:00 Uhr
1025.4
00:45 Uhr

1023.1
14:45 Uhr
1024.3
0,000
00:05 Uhr
0,000
2.311
236
751
12:20 Uhr
4.0
12:20 Uhr

03:45:00
2,7
1
27,4
14:20 Uhr

4
13.8
21:40 Uhr
6.3
01:10 Uhr
7.4
04:10 Uhr
7
20:10 Uhr

00:00 Uhr

00:00 Uhr

00:00 Uhr
09
Zeitraffer
13:08
26.5
16:15 Uhr
13.3
02:25 Uhr

93
02:40 Uhr
46
16:20 Uhr
1024.6
00:05 Uhr

1015.8
23:45 Uhr
1020.3
0,000
00:05 Uhr
0,000
2.388
250
723
13:10 Uhr
3.9
13:00 Uhr

05:00:00
1,7
0
27,4
13:15 Uhr

4
17.1
11:00 Uhr
12.1
02:20 Uhr
13.3
02:25 Uhr
10
20:05 Uhr

00:00 Uhr

00:00 Uhr

00:00 Uhr
10
Zeitraffer
13:03
19.9
01:05 Uhr
7.7
23:45 Uhr

93
07:10 Uhr
51
15:00 Uhr
1022.0
10:15 Uhr

1016.0
00:05 Uhr
1020.2
0,000
00:05 Uhr
0,000
1.803
209
763
13:30 Uhr
3.5
12:35 Uhr

03:15:00
2,1
1
25,7
13:10 Uhr

4
16.8
01:40 Uhr
6.3
23:45 Uhr
7.7
23:45 Uhr
11
01:10 Uhr

00:00 Uhr

00:00 Uhr

00:00 Uhr
11
Zeitraffer
12:59
22.3
14:40 Uhr
5.0
04:40 Uhr

94
04:15 Uhr
45
12:25 Uhr
1020.7
00:30 Uhr

1017.1
19:15 Uhr
1018.8
0,000
00:05 Uhr
0,000
2.311
294
608
13:10 Uhr
3.0
12:45 Uhr

07:25:00
0,6
0
14,5
12:10 Uhr

3
12.9
10:20 Uhr
4.1
04:25 Uhr
5.0
04:40 Uhr
4
10:25 Uhr

00:00 Uhr

00:00 Uhr

00:00 Uhr
12
Zeitraffer
12:56
25.8
16:00 Uhr
7.4
06:45 Uhr

94
04:00 Uhr
48
15:05 Uhr
1021.9
23:45 Uhr

1017.2
01:00 Uhr
1018.3
0,000
00:05 Uhr
0,000
2.489
279
568
13:10 Uhr
2.6
12:50 Uhr

07:20:00
1,2
0
27,4
14:55 Uhr

4
15.0
14:10 Uhr
6.5
06:45 Uhr
7.4
06:45 Uhr
8
20:30 Uhr

00:00 Uhr

00:00 Uhr

00:00 Uhr
13
Zeitraffer
12:51
23.8
15:25 Uhr
10.1
06:10 Uhr

93
06:00 Uhr
54
15:40 Uhr
1027.1
23:45 Uhr

1022.0
00:05 Uhr
1025.3
0,000
00:05 Uhr
0,000
2.210
267
575
14:20 Uhr
3.1
12:45 Uhr

06:40:00
1,4
0
22,5
14:30 Uhr

4
15.2
18:10 Uhr
8.9
06:05 Uhr
10.1
06:10 Uhr
8
19:55 Uhr

00:00 Uhr

00:00 Uhr

00:00 Uhr
14
Zeitraffer
12:47
29.5
15:30 Uhr
9.8
06:25 Uhr

95
08:00 Uhr
46
15:20 Uhr
1028.8
10:15 Uhr

1025.7
18:45 Uhr
1027.3
0,000
00:05 Uhr
0,000
2.337
274
594
13:15 Uhr
2.6
12:20 Uhr

07:25:00
0,4
0
9,7
12:40 Uhr

2
18.7
18:15 Uhr
8.9
06:25 Uhr
9.8
06:25 Uhr
12
19:55 Uhr

00:00 Uhr

00:00 Uhr

00:00 Uhr
15
Zeitraffer
12:44
30.9
15:55 Uhr
12.9
06:45 Uhr

95
07:45 Uhr
43
15:40 Uhr
1025.7
00:05 Uhr

1018.8
22:15 Uhr
1022.4
0,000
00:05 Uhr
0,000
2.616
279
568
13:35 Uhr
2.3
12:55 Uhr

07:25:00
1,0
0
19,3
12:20 Uhr

3
19.2
10:40 Uhr
12.0
06:45 Uhr
12.9
06:45 Uhr
12
19:50 Uhr

00:00 Uhr

00:00 Uhr

00:00 Uhr


 
Wetter Information zur Wetteranzeige
Zeitraffer
Tageslänge (hh:mm)
Höchsttemperatur in °C
Uhrzeit
Tiefsttemperatur in °C
Uhrzeit
Luftfeuchte (max., in %)
Uhrzeit
Luftfeuchte (min., in %)
Uhrzeit
Luftdruck (max., in hPa)
Uhrzeit
Luftdruck (min., in hPa)
Uhrzeit
Luftdruck (Ø, in hPa)
Regenrate (max, mm/h)
Uhrzeit
Niederschlag in mm
Verdunstung in mm
Solar in W/m² (Ø)
Solar in W/m² (max.)
UV-Index (max.)
Sonnenscheindauer (hh:mm)
Windrichtung (Ø)
Windstärke (Ø in km/h)
Windstärke (Ø in bft)
Windböe (max., in km/h)
Uhrzeit
Windböe (max., in bft)
Uhrzeit
Taupunkt (max., in °C)
Uhrzeit
Taupunkt (min., in °C)
Uhrzeit
Windchill (min., in °C)
Uhrzeit
Gewitterindex (max.)
Uhrzeit
Waldbrandindex (max.)
Uhrzeit
Graslandfeuerindex (max.)
Uhrzeit
Staubsturm-Index (max.)
Uhrzeit
16
Zeitraffer
12:39
30.4
16:00 Uhr
13.6
06:30 Uhr

95
07:55 Uhr
41
16:05 Uhr
1019.3
23:45 Uhr

1015.2
16:15 Uhr
1016.7
0,000
00:05 Uhr
0,000
2.464
276
563
13:25 Uhr
2.2
12:15 Uhr

06:45:00
1,1
0
27,4
23:30 Uhr

4
19.6
12:45 Uhr
12.7
06:25 Uhr
13.6
06:30 Uhr
12
22:55 Uhr

00:00 Uhr

00:00 Uhr

00:00 Uhr
17
Zeitraffer
12:35
19.2
14:20 Uhr
6.3
23:55 Uhr

92
08:20 Uhr
41
14:50 Uhr
1030.7
23:15 Uhr

1019.7
00:05 Uhr
1026.8
0,000
00:05 Uhr
0,000
2.566
298
623
11:45 Uhr
2.7
12:35 Uhr

07:30:00
2,9
1
27,4
16:50 Uhr

4
13.1
01:00 Uhr
4.7
23:50 Uhr
6.3
23:55 Uhr
6
00:05 Uhr

00:00 Uhr

00:00 Uhr

00:00 Uhr
18
Zeitraffer
12:31
19.8
16:15 Uhr
1.8
06:20 Uhr

94
07:10 Uhr
41
16:15 Uhr
1031.2
09:45 Uhr

1027.5
23:45 Uhr
1029.7
0,000
00:05 Uhr
0,000
2.083
290
610
13:10 Uhr
3.0
13:00 Uhr

07:35:00
0,3
0
9,7
12:45 Uhr

2
9.0
10:05 Uhr
0.8
06:20 Uhr
1.8
06:20 Uhr
0
00:05 Uhr

00:00 Uhr

00:00 Uhr

00:00 Uhr
19
Zeitraffer
12:27
21.3
14:50 Uhr
3.4
04:40 Uhr

94
05:00 Uhr
40
15:50 Uhr
1027.4
00:05 Uhr

1021.6
17:45 Uhr
1024.2
0,000
00:05 Uhr
0,000
1.803
259
565
13:20 Uhr
2.7
12:35 Uhr

06:25:00
0,6
0
14,5
11:55 Uhr

3
9.5
12:45 Uhr
2.4
04:40 Uhr
3.4
04:40 Uhr
2
19:45 Uhr

00:00 Uhr

00:00 Uhr

00:00 Uhr
20
Zeitraffer
12:23
23.7
15:05 Uhr
6.1
06:00 Uhr

91
02:35 Uhr
39
15:15 Uhr
1021.7
00:05 Uhr

1018.6
18:15 Uhr
1020.1
0,000
00:05 Uhr
0,000
2.261
289
566
13:10 Uhr
2.3
12:15 Uhr

07:25:00
0,8
0
20,9
16:25 Uhr

4
11.0
11:35 Uhr
4.6
06:00 Uhr
6.1
06:00 Uhr
2
11:15 Uhr

00:00 Uhr

00:00 Uhr

00:00 Uhr
21
Zeitraffer
12:19
24.8
15:35 Uhr
5.4
06:50 Uhr

93
07:40 Uhr
43
15:55 Uhr
1019.6
00:05 Uhr

1015.6
23:45 Uhr
1018.1
0,000
00:05 Uhr
0,000
2.108
273
545
13:10 Uhr
2.2
12:15 Uhr

07:40:00
0,4
0
9,7
11:30 Uhr

2
13.1
12:20 Uhr
4.2
06:50 Uhr
5.4
06:50 Uhr
5
19:40 Uhr

00:00 Uhr

00:00 Uhr

00:00 Uhr
22
Zeitraffer
12:15
26.4
14:30 Uhr
9.0
06:15 Uhr

98
06:30 Uhr
44
15:40 Uhr
1015.4
00:05 Uhr

1008.1
23:45 Uhr
1011.7
0,000
00:05 Uhr
0,000
2.210
270
543
13:20 Uhr
2.1
12:55 Uhr

07:35:00
0,7
0
17,7
13:10 Uhr

3
15.2
12:40 Uhr
7.9
06:15 Uhr
9.0
06:15 Uhr
7
19:35 Uhr

00:00 Uhr

00:00 Uhr

00:00 Uhr
23
Zeitraffer
12:10
27.3
15:10 Uhr
10.9
07:10 Uhr

94
05:25 Uhr
47
15:30 Uhr
1007.9
00:05 Uhr

1004.0
17:45 Uhr
1005.7
2,400
20:10 Uhr
0,200
2.083
253
512
13:10 Uhr
1.8
12:55 Uhr

06:20:00
0,7
0
17,7
19:40 Uhr

3
17.4
17:35 Uhr
10.0
07:10 Uhr
10.9
07:10 Uhr
10
19:45 Uhr

00:00 Uhr

00:00 Uhr

00:00 Uhr
24
Zeitraffer
12:07
23.3
14:45 Uhr
11.9
23:55 Uhr

94
00:40 Uhr
58
17:20 Uhr
1005.4
16:15 Uhr

1003.7
03:00 Uhr
1004.6
2,400
04:10 Uhr
0,200
1.803
216
594
13:00 Uhr
2.1
12:15 Uhr

03:55:00
1,8
0
27,4
13:45 Uhr

4
15.7
11:40 Uhr
10.7
23:55 Uhr
11.9
23:55 Uhr
9
00:55 Uhr

00:00 Uhr

00:00 Uhr

00:00 Uhr
25
Zeitraffer
12:03
15.6
17:00 Uhr
10.8
01:15 Uhr

95
23:00 Uhr
89
17:05 Uhr
1003.7
00:05 Uhr

996.1
09:15 Uhr
997.9
12,000
17:45 Uhr
6,800
0.508
71
211
16:45 Uhr
0.8
15:15 Uhr

00:20:00
0,6
0
17,7
17:40 Uhr

3
14.1
16:30 Uhr
9.7
01:15 Uhr
10.8
01:15 Uhr
5
09:05 Uhr

00:00 Uhr

00:00 Uhr

00:00 Uhr
26
Zeitraffer
11:58
12.0
00:05 Uhr
8.8
23:50 Uhr

95
00:30 Uhr
94
00:05 Uhr
998.4
23:45 Uhr

988.6
16:00 Uhr
994.1
16,800
12:45 Uhr
29,400
0.178
21
74
15:35 Uhr
0.0
00:05 Uhr

00:00:00
2,4
1
25,7
15:00 Uhr

4
11.2
00:30 Uhr
7.9
23:50 Uhr
8.1
15:15 Uhr
3
00:05 Uhr

00:00 Uhr

00:00 Uhr

00:00 Uhr
27
Zeitraffer
11:55
12.4
12:35 Uhr
6.3
04:10 Uhr

95
05:35 Uhr
78
12:35 Uhr
1009.6
23:45 Uhr

998.6
00:05 Uhr
1004.0
0,000
00:05 Uhr
0,000
0.762
135
640
12:15 Uhr
2.1
12:15 Uhr

00:45:00
0,7
0
17,7
00:25 Uhr

3
9.3
15:20 Uhr
5.4
04:10 Uhr
6.3
04:10 Uhr
2
22:00 Uhr

00:00 Uhr

00:00 Uhr

00:00 Uhr
28
Zeitraffer
11:51
18.4
14:30 Uhr
5.6
07:20 Uhr

94
07:40 Uhr
53
14:15 Uhr
1014.8
23:30 Uhr

1009.7
00:45 Uhr
1012.0
0,000
00:05 Uhr
0,000
1.473
248
570
13:15 Uhr
2.1
12:45 Uhr

05:05:00
0,9
0
14,5
11:20 Uhr

3
10.5
18:25 Uhr
4.5
07:20 Uhr
5.6
07:20 Uhr
2
18:25 Uhr

00:00 Uhr

00:00 Uhr

00:00 Uhr
29
Zeitraffer
11:46
18.4
15:00 Uhr
8.6
23:25 Uhr

93
22:05 Uhr
58
15:10 Uhr
1017.4
22:15 Uhr

1013.8
02:00 Uhr
1015.6
0,000
00:05 Uhr
0,000
1.422
210
575
12:40 Uhr
2.2
12:40 Uhr

04:30:00
0,7
0
17,7
15:20 Uhr

3
12.2
12:50 Uhr
7.5
23:25 Uhr
8.6
23:25 Uhr
3
19:20 Uhr

00:00 Uhr

00:00 Uhr

00:00 Uhr
30
Zeitraffer
11:42
16.2
16:35 Uhr
4.9
06:20 Uhr

95
07:25 Uhr
86
16:45 Uhr
1017.1
00:05 Uhr

1013.5
23:45 Uhr
1015.9
0,000
00:05 Uhr
0,000
0.559
93
311
16:10 Uhr
0.9
14:05 Uhr

00:45:00
0,1
0
6,4
16:10 Uhr

1
14.1
16:40 Uhr
4.0
06:25 Uhr
4.9
06:20 Uhr
5
16:25 Uhr

00:00 Uhr

00:00 Uhr

00:00 Uhr
Stationsstandorte || Wetterblog || Wissenswertes || Downloads || Seitenhistorie || Partner || Impressum / Datenschutz